Regional Weather Roundup
Issued by NWS Cleveland, OH

Home | Current Version | Previous Version | Graphics & Text | Print | Product List | Glossary On
Versions: 1 2 3 4 5 6 7 8 9 10 11 12 13 14 15 16 17 18 19 20 21 22 23 24 25 26 27 28 29 30 31 32 33 34 35 36 37 38 39 40 41 42 43 44 45 46 47 48 49 50
000
ASUS41 KCLE 262002
RWRCLE
OHIO REGIONAL WEATHER ROUNDUP
NATIONAL WEATHER SERVICE CLEVELAND, OH
400 PM EDT TUE JUL 26 2016

NOTE: "FAIR" INDICATES FEW OR NO CLOUDS BELOW 12,000 FEET WITH NO
SIGNIFICANT WEATHER AND/OR OBSTRUCTIONS TO VISIBILITY.

OHZ001>008-015>018-024>027-034-035-043-044-262100-
   NORTHWEST OHIO

CITY           SKY/WX    TMP DP  RH WIND       PRES   REMARKS
DEFIANCE       PTSUNNY   85  59  41 SW5       30.02F
FINDLAY        CLOUDY    86  61  42 CALM      30.01F
TOLEDO EXPRESS SUNNY     86  59  39 VRB5      30.01F
TOLEDO EXEC    MOSUNNY   85  61  44 NE6       30.02F
LIMA           CLOUDY    82  66  58 VRB3      30.02F
$$

OHZ009>014-019>023-028>033-038-089-262100-
   NORTHEAST OHIO

CITY           SKY/WX    TMP DP  RH WIND       PRES   REMARKS
CLE-HOPKINS    PTSUNNY   84  56  38 N10       30.04F
CLE-LAKEFRONT  SUNNY     80  63  55 N9        30.02F
CUY CO. ARPT   PTSUNNY  N/A N/A N/A N12       30.04F
LORAIN-ELYRIA  CLOUDY    81  60  48 N8        30.04F
ASHTABULA      SUNNY     79  60  52 NW7       30.05F
AKRON-CANTON   PTSUNNY   86  59  39 CALM      30.02F
WOOSTER        PTSUNNY   85  61  44 CALM      30.03F
MANSFIELD      CLOUDY    85  62  46 N6        30.04F
YOUNGSTOWN     PTSUNNY   84  58  40 N8        30.03F
$$

OHZ042-051>053-060>062-070>072-077>081-262100-
  SOUTHWEST OHIO

CITY           SKY/WX    TMP DP  RH WIND       PRES   REMARKS
CINC-COVINGTON CLOUDY    80  74  81 CALM      30.02F
CINC-LUNKEN    CLOUDY    78  76  93 S3        30.02F
HAMILTON       LGT RAIN  81  71  71 N5        30.02F
DAYTON         LGT RAIN  80  67  64 CALM      30.02F
WRIGHT-PAT AFB MOSUNNY   82  69  66 SE2       30.01F
DAYTON GENERAL CLOUDY    79  70  74 CALM      30.01F
WILMINGTON     CLOUDY    78  74  87 N3        30.03S
$$

OHZ036-037-039>041-045>050-054>059-063>069-073>076-082>088-262100-
  CENTRAL AND SOUTHEAST OHIO

CITY           SKY/WX    TMP DP  RH WIND       PRES   REMARKS
COLUMBUS       CLOUDY    85  67  54 E5        30.00S
OSU AIRPORT    CLOUDY    86  66  51 CALM      30.01S
BOLTON FIELD   MOSUNNY   82  72  69 W5        30.02S
RICKENBACK AFB CLOUDY    83  69  62 S3        30.01R
NEWARK         CLOUDY    88  66  48 NW5       30.00F HX  90
MARION         CLOUDY    85  63  47 N7        30.03S
LANCASTER      CLOUDY    83  71  67 CALM      30.02S
ZANESVILLE     CLOUDY    92  66  42 VRB3      30.00F HX  94
NEW PHILLY     MOSUNNY   90  59  35 VRB5      30.01F
$$




USA.gov is the U.S. government's official web portal to all federal, state and local government web resources and services.